Location: ??????
(56.0120°N, 39.1740°E)
Time: 06:46:19
(UTC+00:00)

USA 32 - Pass Details

Date: 14 April 2026
Orbit: 776 x 778 km, 85.0° (Epoch: 10 May)

Event Time Altitude Azimuth Distance (km) Brightness Sun altitude
Exits shadow 18:10:46 - 184° (S) 2,944 6.7 -13.2°
Reaches altitude 10° 18:12:19 10° 184° (S) 2,327 6.1 -13.4°
Maximum altitude 18:17:33 85° 97° (E) 790 4.0 -13.9°
Drops below altitude 10° 18:22:50 10° 9° (N) 2,346 7.0 -14.5°
Sets 18:25:12 0° 9° (N) 3,278 7.8 -14.7°
